Location: Antichan
(42.9728°N, 0.6667°E)
Time: 17:10:21
(UTC+00:00)

Cosmos 2123 Rocket - Pass Details

Date: 15 August 2020
Orbit: 962 x 991 km, 82.9° (Epoch: 17 September)

Event Time Altitude Azimuth Distance (km) Brightness Sun altitude
Rises 19:34:49 0° 357° (N) 3,672 7.4 -6.9°
Reaches altitude 10° 19:37:28 10° 4° (N) 2,725 6.7 -7.3°
Maximum altitude 19:43:25 45° 76° (ENE) 1,312 4.4 -8.3°
Drops below altitude 10° 19:49:22 10° 148° (SSE) 2,728 5.8 -9.2°
Enters shadow 19:50:26 - 151° (SSE) 3,107 6.1 -9.4°
